RJA94P OJAQ-OMAL

Flight info

Callsign RJA94P
Flight time N/A
Altitude 37000
Route TAMIM DCT NIMAR DCT DOH/N0440F270 B415 SIXIV N318 KANIP
Aircraft A319/M-SDE3FGHIRWY/LB1

Departure

Time 2026-05-08 17:24
Airport King Hussein International Airport (OJAQ)

Arrival

Time N/A
Airport Al Ain International Airport (OMAL)
Time Latitude Longitude Altitude Speed Heading
2026-05-08 17:19 29.60875 35.01969 176 ft 3 kts 107°
2026-05-08 17:19 29.60881 35.01948 176 ft 3 kts 107°
2026-05-08 17:20 29.60886 35.01927 176 ft 3 kts 107°
2026-05-08 17:20 29.60892 35.01906 176 ft 3 kts 107°
2026-05-08 17:20 29.60897 35.01888 176 ft 0 kts 107°
2026-05-08 17:20 29.60880 35.01894 176 ft 11 kts 175°
2026-05-08 17:21 29.60704 35.01843 176 ft 32 kts 201°
2026-05-08 17:21 29.60514 35.01769 176 ft 27 kts 202°
2026-05-08 17:21 29.60358 35.01721 176 ft 21 kts 198°
2026-05-08 17:21 29.60230 35.01674 176 ft 18 kts 197°
2026-05-08 17:22 29.60112 35.01635 176 ft 18 kts 194°
2026-05-08 17:22 29.59984 35.01591 176 ft 20 kts 199°
2026-05-08 17:22 29.59848 35.01539 176 ft 21 kts 199°
2026-05-08 17:22 29.59793 35.01445 176 ft 12 kts 282°
2026-05-08 17:23 29.59819 35.01368 176 ft 8 kts 315°
2026-05-08 17:23 29.59873 35.01358 175 ft 12 kts 11°
2026-05-08 17:23 29.60133 35.01439 173 ft 71 kts 18°
2026-05-08 17:23 29.60810 35.01653 178 ft 130 kts
2026-05-08 17:24 29.61761 35.01929 627 ft 143 kts 21°
2026-05-08 17:24 29.62453 35.02668 1369 ft 136 kts 70°
2026-05-08 17:24 29.62372 35.03862 1535 ft 180 kts 113°
2026-05-08 17:24 29.61832 35.05201 2216 ft 183 kts 95°
2026-05-08 17:25 29.62094 35.06572 2946 ft 177 kts 51°
2026-05-08 17:25 29.63080 35.07306 3609 ft 171 kts
2026-05-08 17:25 29.64219 35.07023 4177 ft 173 kts 334°
2026-05-08 17:25 29.64926 35.06566 4498 ft 180 kts 331°
2026-05-08 17:26 29.67864 35.04683 5520 ft 211 kts 338°
2026-05-08 17:26 29.69212 35.04149 6406 ft 203 kts 348°
2026-05-08 17:26 29.70690 35.03910 6638 ft 228 kts 359°
2026-05-08 17:27 29.72355 35.04014 6948 ft 250 kts 11°
2026-05-08 17:27 29.74085 35.04489 7407 ft 267 kts 17°
2026-05-08 17:27 29.75911 35.05136 7930 ft 282 kts 19°
2026-05-08 17:27 29.77816 35.05891 8521 ft 295 kts 20°
2026-05-08 17:28 29.79767 35.06699 9323 ft 300 kts 20°
2026-05-08 17:28 29.81751 35.07532 10099 ft 305 kts 20°
2026-05-08 17:28 29.83749 35.08384 10784 ft 313 kts 20°
2026-05-08 17:28 29.85856 35.09287 11177 ft 330 kts 20°
2026-05-08 17:29 29.88064 35.10229 11615 ft 346 kts 19°
2026-05-08 17:29 29.90364 35.11207 12109 ft 358 kts 20°
2026-05-08 17:29 29.92521 35.12652 12907 ft 363 kts 40°
2026-05-08 17:29 29.94099 35.14928 13689 ft 369 kts 61°
2026-05-08 17:30 29.94885 35.17744 14361 ft 374 kts 82°
2026-05-08 17:30 29.94769 35.20745 15033 ft 378 kts 103°
2026-05-08 17:30 29.93753 35.23551 15666 ft 382 kts 123°
2026-05-08 17:30 29.91959 35.25799 16284 ft 385 kts 144°
2026-05-08 17:31 29.89590 35.27232 16878 ft 387 kts 164°
2026-05-08 17:31 29.86927 35.27667 17452 ft 389 kts 184°
2026-05-08 17:31 29.84283 35.27054 18007 ft 389 kts 202°
2026-05-08 17:31 29.81754 35.25861 18514 ft 394 kts 204°
2026-05-08 17:32 29.79129 35.24913 19001 ft 400 kts 194°
2026-05-08 17:32 29.76365 35.24612 19469 ft 408 kts 178°
2026-05-08 17:32 29.73576 35.25293 19922 ft 415 kts 159°
2026-05-08 17:32 29.71067 35.26964 20379 ft 420 kts 140°
2026-05-08 17:33 29.68923 35.29272 20821 ft 425 kts 134°
2026-05-08 17:33 29.66885 35.31756 21283 ft 429 kts 132°
2026-05-08 17:33 29.64862 35.34301 21747 ft 433 kts 131°
2026-05-08 17:33 29.62820 35.36881 22177 ft 438 kts 131°
2026-05-08 17:34 29.60748 35.39476 22621 ft 442 kts 132°
2026-05-08 17:34 29.58642 35.42068 23057 ft 446 kts 132°
2026-05-08 17:34 29.56493 35.44667 23474 ft 450 kts 133°
2026-05-08 17:34 29.54534 35.47473 23835 ft 452 kts 118°
2026-05-08 17:35 29.53333 35.50786 24175 ft 449 kts 100°
2026-05-08 17:35 29.53015 35.54310 24539 ft 442 kts 82°
2026-05-08 17:35 29.53580 35.57764 24691 ft 442 kts 66°
2026-05-08 17:35 29.54708 35.61078 24713 ft 451 kts 62°
2026-05-08 17:36 29.55530 35.63288 24725 ft 459 kts 62°
2026-05-08 17:36 29.56789 35.66706 24717 ft 471 kts 63°
2026-05-08 17:36 29.58028 35.70251 24825 ft 480 kts 64°
2026-05-08 17:36 29.59551 35.75071 25441 ft 480 kts 66°
2026-05-08 17:37 29.60223 35.77492 25749 ft 482 kts 70°
2026-05-08 17:37 29.60643 35.81344 26216 ft 491 kts 85°
2026-05-08 17:37 29.60492 35.85272 26671 ft 493 kts 90°
2026-05-08 17:37 29.60061 35.90522 27269 ft 494 kts 91°
2026-05-08 17:38 29.59809 35.93124 27569 ft 493 kts 91°
2026-05-08 17:38 29.59407 35.97030 28023 ft 493 kts 92°
2026-05-08 17:38 29.58989 36.00939 28472 ft 492 kts 92°
2026-05-08 17:38 29.58424 36.06112 29069 ft 491 kts 92°
2026-05-08 17:39 29.57995 36.09992 29519 ft 490 kts 91°
2026-05-08 17:39 29.57705 36.12617 29824 ft 489 kts 91°
2026-05-08 17:39 29.57275 36.16493 30238 ft 488 kts 91°
2026-05-08 17:39 29.56861 36.20221 30578 ft 488 kts 91°
2026-05-08 17:40 29.56433 36.24089 30925 ft 488 kts 91°
2026-05-08 17:40 29.56004 36.27958 31256 ft 488 kts 91°
2026-05-08 17:40 29.55575 36.31827 31597 ft 488 kts 91°
2026-05-08 17:40 29.55151 36.35639 31934 ft 487 kts 91°
2026-05-08 17:41 29.54721 36.39501 32271 ft 487 kts 91°
2026-05-08 17:41 29.54291 36.43357 32594 ft 487 kts 91°
2026-05-08 17:41 29.53854 36.47264 32928 ft 487 kts 91°
2026-05-08 17:41 29.53426 36.51081 33252 ft 487 kts 91°
2026-05-08 17:42 29.52993 36.54932 33562 ft 488 kts 91°
2026-05-08 17:42 29.52557 36.58803 33869 ft 488 kts 90°
2026-05-08 17:42 29.52121 36.62662 34153 ft 487 kts 90°
2026-05-08 17:42 29.51687 36.66519 34435 ft 487 kts 90°
2026-05-08 17:43 29.51254 36.70366 34724 ft 486 kts 91°
2026-05-08 17:43 29.50820 36.74213 34994 ft 486 kts 91°
2026-05-08 17:43 29.50385 36.78055 35274 ft 485 kts 91°
2026-05-08 17:43 29.49950 36.81889 35542 ft 484 kts 91°
2026-05-08 17:44 29.49515 36.85724 35796 ft 484 kts 91°
2026-05-08 17:44 29.49078 36.89553 36052 ft 483 kts 91°
2026-05-08 17:44 29.48640 36.93382 36311 ft 483 kts 91°
2026-05-08 17:44 29.48203 36.97197 36562 ft 482 kts 91°
2026-05-08 17:45 29.47763 37.01013 36797 ft 481 kts 91°
2026-05-08 17:45 29.47324 37.04797 36933 ft 475 kts 91°
2026-05-08 17:45 29.46451 37.12302 37022 ft 477 kts 91°
2026-05-08 17:46 29.45573 37.19873 37039 ft 485 kts 91°
2026-05-08 17:46 29.44671 37.27612 37042 ft 493 kts 92°
2026-05-08 17:47 29.43754 37.35381 37036 ft 488 kts 92°
2026-05-08 17:47 29.42985 37.41820 37030 ft 485 kts 92°
2026-05-08 17:48 29.41919 37.50730 37032 ft 486 kts 92°
2026-05-08 17:48 29.41000 37.58423 37024 ft 488 kts 92°
2026-05-08 17:49 29.40073 37.66141 37023 ft 487 kts 92°
2026-05-08 17:49 29.39142 37.73811 37028 ft 485 kts 92°
2026-05-08 17:50 29.38211 37.81468 37027 ft 486 kts 92°
2026-05-08 17:50 29.37272 37.89152 37024 ft 487 kts 92°
2026-05-08 17:51 29.36329 37.96837 37023 ft 486 kts 92°
2026-05-08 17:51 29.35384 38.04494 37030 ft 485 kts 92°
2026-05-08 17:52 29.34440 38.12107 37026 ft 486 kts 93°
2026-05-08 17:53 29.33006 38.23617 37031 ft 487 kts 93°
2026-05-08 17:53 29.32042 38.31289 37028 ft 486 kts 93°
2026-05-08 17:54 29.31094 38.38801 37028 ft 485 kts 93°
2026-05-08 17:54 29.30123 38.46460 37032 ft 486 kts 93°
2026-05-08 17:55 29.29146 38.54144 37036 ft 487 kts 93°
2026-05-08 17:55 29.28165 38.61805 37039 ft 486 kts 94°
2026-05-08 17:56 29.27182 38.69453 37039 ft 485 kts 94°
2026-05-08 17:56 29.26194 38.77111 37037 ft 486 kts 94°
2026-05-08 17:57 29.25202 38.84767 37044 ft 486 kts 94°
2026-05-08 17:57 29.24211 38.92379 37045 ft 485 kts 94°
2026-05-08 17:58 29.23213 39.00004 37049 ft 484 kts 94°
2026-05-08 17:58 29.22211 39.07633 37050 ft 484 kts 94°
2026-05-08 17:59 29.21203 39.15259 37051 ft 485 kts 94°
2026-05-08 17:59 29.20192 39.22876 37058 ft 483 kts 95°
2026-05-08 18:00 29.19179 39.30471 37055 ft 482 kts 95°
2026-05-08 18:00 29.17656 39.41836 37058 ft 483 kts 95°
2026-05-08 18:01 29.16630 39.49446 37058 ft 483 kts 95°
2026-05-08 18:01 29.15603 39.57034 37060 ft 482 kts 95°
2026-05-08 18:02 29.14747 39.63322 37063 ft 481 kts 95°
2026-05-08 18:02 29.13540 39.72146 37058 ft 481 kts 95°
2026-05-08 18:03 29.12500 39.79710 37064 ft 482 kts 95°
2026-05-08 18:03 29.11424 39.87268 37062 ft 482 kts 99°
2026-05-08 18:04 29.09711 39.94684 37064 ft 483 kts 104°
2026-05-08 18:04 29.07760 40.02036 37065 ft 484 kts 104°
2026-05-08 18:05 29.05764 40.09332 37066 ft 484 kts 105°
2026-05-08 18:05 29.03736 40.16659 37070 ft 482 kts 105°
2026-05-08 18:06 29.01707 40.23959 37074 ft 481 kts 105°
2026-05-08 18:06 28.99675 40.31249 37076 ft 482 kts 106°
2026-05-08 18:07 28.97634 40.38545 37076 ft 482 kts 106°
2026-05-08 18:07 28.95593 40.45824 37078 ft 481 kts 107°
2026-05-08 18:08 28.93551 40.53081 37080 ft 480 kts 107°
2026-05-08 18:08 28.91500 40.60350 37082 ft 481 kts 107°
2026-05-08 18:09 28.89445 40.67613 37082 ft 481 kts 108°
2026-05-08 18:09 28.87385 40.74872 37079 ft 480 kts 108°
2026-05-08 18:10 28.85328 40.82100 37082 ft 479 kts 108°
2026-05-08 18:10 28.83267 40.89322 37079 ft 479 kts 108°
2026-05-08 18:11 28.81211 40.96512 37076 ft 479 kts 109°
2026-05-08 18:11 28.79131 41.03776 37070 ft 477 kts 109°
2026-05-08 18:12 28.77073 41.10948 37070 ft 475 kts 109°
2026-05-08 18:12 28.75012 41.18111 37066 ft 475 kts 110°
2026-05-08 18:13 28.72947 41.25267 37065 ft 475 kts 110°
2026-05-08 18:13 28.70880 41.32421 37068 ft 474 kts 110°
2026-05-08 18:14 28.68820 41.39533 37066 ft 472 kts 111°
2026-05-08 18:14 28.66761 41.46624 37062 ft 472 kts 111°
2026-05-08 18:15 28.64706 41.53675 37058 ft 473 kts 111°
2026-05-08 18:15 28.62631 41.60786 37056 ft 473 kts 112°
2026-05-08 18:16 28.60556 41.67882 37056 ft 471 kts 112°
2026-05-08 18:16 28.58485 41.74956 37052 ft 471 kts 112°
2026-05-08 18:17 28.56406 41.82038 37051 ft 473 kts 113°
2026-05-08 18:17 28.54321 41.89132 37048 ft 472 kts 113°
2026-05-08 18:18 28.52238 41.96200 37047 ft 471 kts 114°
2026-05-08 18:18 28.50146 42.03278 37048 ft 472 kts 114°
2026-05-08 18:19 28.48062 42.10308 37046 ft 473 kts 114°
2026-05-08 18:19 28.45948 42.17430 37039 ft 472 kts 115°
2026-05-08 18:20 28.43850 42.24485 37041 ft 472 kts 115°
2026-05-08 18:20 28.41737 42.31569 37038 ft 473 kts 115°
2026-05-08 18:21 28.39633 42.38602 37039 ft 474 kts 116°
2026-05-08 18:21 28.37500 42.45723 37041 ft 473 kts 116°
2026-05-08 18:22 28.35388 42.52758 37038 ft 474 kts 116°
2026-05-08 18:22 28.33252 42.59854 37043 ft 476 kts 117°
2026-05-08 18:23 28.31105 42.66965 37044 ft 476 kts 117°
2026-05-08 18:23 28.28958 42.74070 37043 ft 475 kts 117°
2026-05-08 18:24 28.26808 42.81167 37034 ft 476 kts 117°
2026-05-08 18:24 28.24645 42.88288 37034 ft 478 kts 117°
2026-05-08 18:25 28.22844 42.94215 37034 ft 478 kts 118°
2026-05-08 18:25 28.20664 43.01384 37042 ft 477 kts 118°
2026-05-08 18:26 28.18511 43.08445 37039 ft 477 kts 118°
2026-05-08 18:26 28.16335 43.15561 37032 ft 478 kts 118°
2026-05-08 18:27 28.14508 43.21524 37034 ft 479 kts 119°
2026-05-08 18:27 28.11948 43.29859 37030 ft 479 kts 119°
2026-05-08 18:28 28.09768 43.36942 37026 ft 479 kts 119°
2026-05-08 18:28 28.07567 43.44073 37026 ft 480 kts 120°
2026-05-08 18:29 28.05357 43.51215 37027 ft 482 kts 120°
2026-05-08 18:29 28.03138 43.58374 37024 ft 481 kts 120°
2026-05-08 18:30 28.00920 43.65513 37024 ft 481 kts 120°
2026-05-08 18:30 27.98695 43.72654 37027 ft 482 kts 120°
2026-05-08 18:31 27.96461 43.79809 37028 ft 483 kts 120°
2026-05-08 18:31 27.94223 43.86970 37026 ft 482 kts 120°
2026-05-08 18:32 27.91989 43.94112 37024 ft 482 kts 120°
2026-05-08 18:32 27.90121 44.00059 37035 ft 482 kts 121°
2026-05-08 18:33 27.87503 44.08382 37026 ft 482 kts 121°
2026-05-08 18:33 27.85258 44.15512 37021 ft 481 kts 121°
2026-05-08 18:34 27.84136 44.19070 37024 ft 481 kts 121°